Regional Weather Roundup
Issued by NWS

Home | Current Version | Previous Version | Text Only | Print | Product List | Glossary Off
Versions: 1 2 3 4 5 6 7 8 9 10 11 12 13 14 15 16 17 18 19 20 21 22 23 24 25 26 27 28 29 30 31 32 33 34 35 36 37 38 39 40 41 42 43 44 45 46 47 48 49 50

687
ASUS43 KOAX 280910
RWRNE

WEATHER ROUNDUP FOR NEBRASKA
NATIONAL WEATHER SERVICE OMAHA NE
400 AM CDT FRI APR 28 2017

NOTES: SATELLITE DATA IS BEING USED TO AUGMENT CLOUD COVER ABOVE
       12000 FEET.
       "FAIR" INDICATES FEW OR NO CLOUDS BELOW 12,000 FEET WITH NO
       SIGNIFICANT WEATHER AND/OR OBSTRUCTIONS TO VISIBILITY.

  * THESE STATIONS DO NOT REPORT WEATHER SUCH AS RAIN...SNOW OR FOG.

NEZ001>004-019>022-054>056-281000-
NEBRASKA PANHANDLE

CITY           SKY/WX    TMP DP  RH WIND       PRES   REMARKS
SCOTTSBLUFF    CLOUDY    39  37  92 E14       29.60S WCI  31
ALLIANCE       LGT SNOW  33  32  96 E7        29.63S VSB 3/4 WCI  27
CHADRON        RAIN      38  35  89 E13       29.67S FOG     WCI  30
KIMBALL        CLOUDY    38  32  77 W9        29.60S WCI  32
SIDNEY         CLOUDY    36  35  96 S9        29.61F WCI  29
$$

NEZ057>060-069>072-079>082-281000-
SOUTHWEST NEBRASKA

CITY           SKY/WX    TMP DP  RH WIND       PRES   REMARKS
NORTH PLATTE   RAIN      42  40  92 SE6       29.65S FOG
IMPERIAL       LGT RAIN  42  40  92 E9        29.61R
LEXINGTON      MIX PCPN  44  42  93 E9        29.64F
MCCOOK         LGT RAIN  44  43  96 E13       29.58F FOG
OGALLALA       LGT SNOW  34  34  98 NE6       29.64S WCI  29
$$

NEZ005>010-023>029-035>040-094-281000-
NORTH CENTRAL NEBRASKA

CITY           SKY/WX    TMP DP  RH WIND       PRES   REMARKS
VALENTINE      CLOUDY    41  30  65 E13       29.75R
AINSWORTH      CLOUDY    39  33  81 E9        29.74S WCI  32
BROKEN BOW     RAIN      44  42  93 E14       29.67S
O`NEILL        CLOUDY    38  31  76 E14       29.77S WCI  29
ORD            LGT RAIN  43  35  73 E15       29.70S
THEDFORD       RAIN      41  40  95 E13       29.69S
$$

NEZ041-046>049-061>064-073>077-083>087-281000-
SOUTH CENTRAL NEBRASKA

CITY           SKY/WX    TMP DP  RH WIND       PRES   REMARKS
GRAND ISLAND   LGT RAIN  45  44  97 E12       29.69F
AURORA         LGT RAIN  46  44  93 E10       29.68F
HASTINGS       RAIN      46  44  93 E10G21    29.67F FOG
HEBRON         MIX PCPN  46  45  95 E10G18    29.66F
HOLDREGE       RAIN      44  42  94 E15       29.63S
KEARNEY *      CLOUDY    45  41  87 E13       29.66F
YORK           CLOUDY    48  43  81 E16       29.70F
$$

NEZ011>018-030>034-042>045-281000-
NORTHEAST NEBRASKA

CITY           SKY/WX    TMP DP  RH WIND       PRES   REMARKS
NORFOLK        MOCLDY    39  32  76 NE14      29.77S WCI  31
ALBION         CLOUDY    43  33  68 E12G18    29.73F
BLAIR          CLOUDY    43  35  73 NE14      29.78S
FREMONT        CLOUDY    44  35  69 NE8G18    29.77F
TEKAMAH        CLOUDY    41  33  73 NE8       29.82R
WAYNE          CLOUDY    34  34  99 NE12      29.81S WCI  26
$$

NEZ050>053-065>068-078-088>093-281000-
SOUTHEAST NEBRASKA

CITY           SKY/WX    TMP DP  RH WIND       PRES   REMARKS
LINCOLN        LGT RAIN  50  43  77 E8        29.73F
OMAHA EPPLEY   CLOUDY    45  34  65 E5        29.79S
BEATRICE       RAIN      48  47  93 E8G16     29.70F
FALLS CITY     LGT RAIN  49  47  93 NE7       29.73S
NEBRASKA CITY  CLOUDY    49  45  86 E7        29.75S
PLATTSMOUTH    CLOUDY    48  33  56 E14       29.76S
$$

NEZ044-045-051>053-067-281000-
OMAHA AREA

CITY           SKY/WX    TMP DP  RH WIND       PRES   REMARKS
OMAHA EPPLEY   CLOUDY    45  34  65 E5        29.79S
BLAIR          CLOUDY    43  35  73 NE14      29.78S
FREMONT        CLOUDY    44  35  69 NE8G18    29.77F
MILLARD        CLOUDY    49  37  65 E7        29.78R
OFFUTT AFB     CLOUDY    47  35  63 NE8       29.77S
PLATTSMOUTH    CLOUDY    48  33  56 E14       29.76S
WAHOO          CLOUDY    46  35  66 NE13      29.75F
$$




USA.gov is the U.S. government's official web portal to all federal, state and local government web resources and services.